Fairbanks Eiels, AK

8:44 AM AKST on December 12, 2019 (GMT -0900)
Eielson Air Force Base

Weather History for PAEI - October, 2019

Change the Weather History Date:

Wednesday, October 16, 2019

  Actual Average Record
Temperature  
Mean Temperature 24 °F -  
Max Temperature 33 °F 32 °F 58 °F (1972)
Min Temperature 16 °F 16 °F -13 °F (1988)
Degree Days  
Heating Degree Days 41    
Moisture  
Dew Point 16 °F    
Average Humidity 74    
Maximum Humidity 84    
Minimum Humidity 56    
Precipitation  
Precipitation 0.00 in - - ()
Snow  
Snow 0.00 in - - ()
Snow Depth 2.00 in    
Sea Level Pressure  
Sea Level Pressure 29.32 in    
Wind  
Wind Speed 4 mph (North)    
Max Wind Speed 10 mph    
Max Gust Speed -    
Visibility 10 miles    
Events      
Averages and records for this station are not official NWS values.
T = Trace of Precipitation, MM = Missing Value Source: NWS Daily Summary

Daily Weather History Graph

Daily Weather History Graph

Search for Another Location

Airport or City:

Astronomy

Oct. 16, 2019 Rise Set
Actual Time 8:43 AM AKDT 6:23 PM AKDT
Civil Twilight 7:53 AM AKDT 7:12 PM AKDT
Nautical Twilight 6:57 AM AKDT 8:09 PM AKDT
Astronomical Twilight 5:59 AM AKDT 9:06 PM AKDT
Moon 7:23 PM AKDT (10/16) 12:16 PM AKDT (10/16)
Length of Visible Light 11h 19m
Length of Day
9h 39m
Waning Gibbous, 92% of the Moon is Illuminated
Oct 16
Waning Gibbous
Oct 21
Last Quarter
Oct 27
New
Nov 4
First Quarter
Nov 12
Full

Hourly Weather History & Observations

Time (AKDT) Temp. Windchill Dew Point Humidity Pressure Visibility Wind Dir Wind Speed Gust Speed Precip Events Conditions
12:56 AM 23.7 °F 17.8 °F 17.6 °F 77% 29.39 in 10.0 mi NNW 4.6 mph - N/A   Overcast
1:56 AM 22.5 °F - 18.1 °F 83% 29.39 in 10.0 mi Calm Calm - N/A   Overcast
2:56 AM 20.1 °F 15.2 °F 15.8 °F 83% 29.39 in 10.0 mi NW 3.5 mph - N/A   Overcast
3:56 AM 19.2 °F 14.1 °F 14.4 °F 81% 29.39 in 10.0 mi NNW 3.5 mph - N/A   Overcast
4:56 AM 18.5 °F 10.4 °F 13.3 °F 80% 29.39 in 10.0 mi NNW 5.8 mph - N/A   Overcast
5:56 AM 18.0 °F 12.7 °F 13.6 °F 83% 29.39 in 10.0 mi NNW 3.5 mph - N/A   Overcast
6:56 AM 16.2 °F - 12.2 °F 84% 29.39 in 10.0 mi Calm Calm - N/A   Clear
7:56 AM 16.2 °F 9.0 °F 11.8 °F 83% 29.39 in 10.0 mi NNW 4.6 mph - N/A   Partly Cloudy
8:56 AM 16.5 °F 11.0 °F 12.0 °F 82% 29.38 in 10.0 mi NNW 3.5 mph - N/A   Clear
9:56 AM 16.7 °F 8.3 °F 11.5 °F 80% 29.37 in 10.0 mi NW 5.8 mph - N/A   Clear
10:56 AM 19.4 °F 11.5 °F 14.0 °F 80% 29.32 in 10.0 mi NNW 5.8 mph - N/A   Clear
11:56 AM 23.5 °F 16.4 °F 17.1 °F 76% 29.34 in 10.0 mi NNW 5.8 mph - N/A   Clear
12:56 PM 30.2 °F 24.3 °F 17.6 °F 60% 29.28 in 10.0 mi ENE 5.8 mph - N/A   Clear
1:56 PM 31.8 °F 26.2 °F 18.3 °F 57% 29.30 in 10.0 mi NNE 5.8 mph - N/A   Clear
2:56 PM 32.5 °F 29.3 °F 18.5 °F 56% 29.28 in 10.0 mi NNE 3.5 mph - N/A   Partly Cloudy
4:56 PM 32.9 °F 29.8 °F 18.9 °F 56% 29.25 in 10.0 mi ENE 3.5 mph - N/A   Clear
5:56 PM 28.0 °F 22.8 °F 19.2 °F 70% 29.26 in 10.0 mi North 4.6 mph - N/A   Clear
6:56 PM 27.0 °F 23.0 °F 18.9 °F 72% 29.25 in 10.0 mi NNW 3.5 mph - N/A   Scattered Clouds
7:56 PM 24.8 °F 20.5 °F 18.0 °F 75% 29.25 in 10.0 mi North 3.5 mph - N/A   Scattered Clouds
9:56 PM 19.9 °F 10.1 °F 12.9 °F 74% 29.24 in 10.0 mi North 8.1 mph - N/A   Scattered Clouds
10:56 PM 22.6 °F 13.4 °F 14.0 °F 69% 29.23 in 10.0 mi NNE 8.1 mph - N/A   Scattered Clouds
11:56 PM 21.2 °F 10.1 °F 13.6 °F 73% 29.22 in 10.0 mi North 10.4 mph - N/A   Partly Cloudy